Hays, KS

5:13 PM CST on December 07, 2016 (GMT -0600)
Hays Regional

Weather History for KHYS - May, 2013

Change the Weather History Date:

Thursday, May 2, 2013

  Actual Average Record
Temperature  
Mean Temperature 43 °F -  
Max Temperature 53 °F 67 °F 89 °F (2012)
Min Temperature 33 °F 44 °F 26 °F (2005)
Degree Days  
Heating Degree Days 22    
Moisture  
Dew Point 26 °F    
Average Humidity 58    
Maximum Humidity 87    
Minimum Humidity 30    
Precipitation  
Precipitation 0.00 in - - ()
Sea Level Pressure  
Sea Level Pressure 30.53 in    
Wind  
Wind Speed 19 mph (North)    
Max Wind Speed 32 mph    
Max Gust Speed 40 mph    
Visibility 10 miles    
Events      
Averages and records for this station are not official NWS values.
T = Trace of Precipitation, MM = Missing Value Source: NWS Daily Summary

Daily Weather History Graph

Daily Weather History Graph

Search for Another Location

Airport or City:

Trip Planner

Search our weather history database for the weather conditions in past years. The results will help you decide how hot, cold, wet, or windy it might be!

Date:

Astronomy

May. 02, 2013 Rise Set
Actual Time 6:37 AM CDT 8:30 PM CDT
Civil Twilight 6:09 AM CDT 8:59 PM CDT
Nautical Twilight 5:34 AM CDT 9:34 PM CDT
Astronomical Twilight 4:56 AM CDT 10:12 PM CDT
Moon 2:21 AM CDT (5/2) 1:26 PM CDT (5/2)
Length of Visible Light 14h 50m
Length of Day
13h 52m
Waning Gibbous, 47% of the Moon is Illuminated
May 2
Waning Gibbous
May 9
New
May 17
First Quarter
May 24
Full
May 31
Last Quarter

Hourly Weather History & Observations

Time (CDT) Temp. Windchill Dew Point Humidity Pressure Visibility Wind Dir Wind Speed Gust Speed Precip Events Conditions
12:15 AM 33.8 °F 22.2 °F 30.2 °F 87% 30.46 in 5.0 mi North 20.7 mph 27.6 mph N/A   Overcast
12:35 AM 33.8 °F 21.3 °F 30.2 °F 87% 30.46 in 5.0 mi North 24.2 mph 28.8 mph N/A   Overcast
12:55 AM 33.8 °F 21.9 °F 30.2 °F 87% 30.46 in 8.0 mi North 21.9 mph 31.1 mph N/A   Overcast
1:15 AM 33.8 °F 21.9 °F 30.2 °F 87% 30.47 in 8.0 mi North 21.9 mph 27.6 mph N/A   Overcast
1:35 AM 33.8 °F 21.6 °F 30.2 °F 87% 30.49 in 9.0 mi North 23.0 mph - N/A   Overcast
1:55 AM 33.8 °F 23.2 °F 30.2 °F 87% 30.50 in 10.0 mi North 17.3 mph - N/A   Overcast
2:15 AM 33.8 °F 23.9 °F 30.2 °F 87% 30.50 in 10.0 mi NNW 15.0 mph - N/A   Overcast
2:35 AM 33.8 °F 25.3 °F 30.2 °F 87% 30.49 in 10.0 mi NNW 11.5 mph - N/A   Overcast
2:55 AM 33.8 °F 24.3 °F 30.2 °F 87% 30.49 in 10.0 mi NNW 13.8 mph - N/A   Overcast
3:15 AM 33.8 °F 23.9 °F 30.2 °F 87% 30.48 in 10.0 mi North 15.0 mph - N/A   Overcast
3:35 AM 35.6 °F 26.6 °F 28.4 °F 75% 30.51 in 10.0 mi NNW 13.8 mph - N/A   Overcast
3:55 AM 33.8 °F 23.5 °F 28.4 °F 81% 30.49 in 10.0 mi NNW 16.1 mph - N/A   Overcast
4:15 AM 35.6 °F 24.8 °F 30.2 °F 81% 30.51 in 10.0 mi NNW 19.6 mph 27.6 mph N/A   Mostly Cloudy
4:35 AM 33.8 °F 21.6 °F 28.4 °F 81% 30.52 in 5.0 mi North 23.0 mph 34.5 mph N/A   Overcast
4:55 AM 33.8 °F 21.6 °F 28.4 °F 81% 30.52 in 10.0 mi North 23.0 mph 28.8 mph N/A   Overcast
5:15 AM 35.6 °F 25.5 °F 30.2 °F 81% 30.52 in 10.0 mi North 17.3 mph - N/A   Overcast
5:35 AM 35.6 °F 25.9 °F 30.2 °F 81% 30.53 in 10.0 mi North 16.1 mph - N/A   Overcast
5:55 AM 35.6 °F 27.1 °F 28.4 °F 75% 30.54 in 10.0 mi North 12.7 mph 26.5 mph N/A   Overcast
6:15 AM 35.6 °F 27.5 °F 28.4 °F 75% 30.54 in 10.0 mi North 11.5 mph - N/A   Overcast
6:35 AM 35.6 °F 26.2 °F 28.4 °F 75% 30.55 in 10.0 mi North 15.0 mph - N/A   Overcast
6:55 AM 37.4 °F 25.6 °F 26.6 °F 65% 30.56 in 10.0 mi North 26.5 mph 31.1 mph N/A   Overcast
7:15 AM 37.4 °F 28.2 °F 28.4 °F 70% 30.57 in 10.0 mi North 16.1 mph - N/A   Overcast
7:35 AM 37.4 °F 27.8 °F 28.4 °F 70% 30.57 in 10.0 mi NNE 17.3 mph 21.9 mph N/A   Overcast
7:55 AM 37.4 °F 25.6 °F 26.6 °F 65% 30.59 in 10.0 mi North 26.5 mph 32.2 mph N/A   Overcast
8:15 AM 35.6 °F 24.8 °F 28.4 °F 75% 30.60 in 10.0 mi NNE 19.6 mph 29.9 mph N/A   Mostly Cloudy
8:35 AM 35.6 °F 25.5 °F 30.2 °F 81% 30.60 in 10.0 mi NNE 17.3 mph - N/A   Overcast
9:15 AM 37.4 °F 28.5 °F 30.2 °F 75% 30.59 in 10.0 mi North 15.0 mph - N/A   Overcast
9:35 AM 39.2 °F 29.8 °F 30.2 °F 70% 30.59 in 10.0 mi NNW 18.4 mph 23.0 mph N/A   Overcast
9:55 AM 39.2 °F 29.3 °F 30.2 °F 70% 30.59 in 10.0 mi NNW 20.7 mph 28.8 mph N/A   Overcast
10:15 AM 41.0 °F 32.2 °F 28.4 °F 61% 30.59 in 10.0 mi NNW 18.4 mph - N/A   Overcast
10:35 AM 42.8 °F 33.3 °F 28.4 °F 57% 30.59 in 10.0 mi North 24.2 mph 31.1 mph N/A   Overcast
10:55 AM 44.6 °F 35.5 °F 26.6 °F 49% 30.60 in 10.0 mi North 25.3 mph 32.2 mph N/A   Overcast
11:15 AM 44.6 °F 35.9 °F 24.8 °F 46% 30.60 in 10.0 mi NNE 23.0 mph 32.2 mph N/A   Overcast
11:35 AM 46.4 °F 37.7 °F 24.8 °F 43% 30.60 in 10.0 mi North 26.5 mph 32.2 mph N/A   Overcast
11:55 AM 46.4 °F 38.3 °F 26.6 °F 46% 30.61 in 10.0 mi NNE 23.0 mph 33.4 mph N/A   Overcast
12:15 PM 46.4 °F 37.7 °F 26.6 °F 46% 30.60 in 10.0 mi NNE 26.5 mph 34.5 mph N/A   Overcast
12:35 PM 46.4 °F 37.9 °F 24.8 °F 43% 30.60 in 10.0 mi NNE 25.3 mph 34.5 mph N/A   Overcast
12:55 PM 48.2 °F - 26.6 °F 43% 30.59 in 10.0 mi North 24.2 mph 40.3 mph N/A   Overcast
1:15 PM 50.0 °F - 24.8 °F 37% 30.59 in 10.0 mi North 32.2 mph 36.8 mph N/A   Overcast
1:35 PM 50.0 °F - 24.8 °F 37% 30.58 in 10.0 mi NNE 26.5 mph 40.3 mph N/A   Overcast
1:55 PM 50.0 °F - 23.0 °F 35% 30.57 in 10.0 mi NNE 29.9 mph 38.0 mph N/A   Mostly Cloudy
2:15 PM 48.2 °F - 24.8 °F 40% 30.57 in 10.0 mi North 26.5 mph 33.4 mph N/A   Mostly Cloudy
2:35 PM 51.8 °F - 24.8 °F 35% 30.56 in 10.0 mi NNE 25.3 mph 34.5 mph N/A   Scattered Clouds
2:55 PM 51.8 °F - 24.8 °F 35% 30.56 in 10.0 mi NNE 25.3 mph 29.9 mph N/A   Mostly Cloudy
3:15 PM 51.8 °F - 24.8 °F 35% 30.55 in 10.0 mi North 24.2 mph 33.4 mph N/A   Mostly Cloudy
3:35 PM 51.8 °F - 23.0 °F 33% 30.54 in 10.0 mi North 26.5 mph 33.4 mph N/A   Partly Cloudy
3:55 PM 53.6 °F - 23.0 °F 30% 30.53 in 10.0 mi NNE 24.2 mph 33.4 mph N/A   Scattered Clouds
4:15 PM 51.8 °F - 21.2 °F 30% 30.53 in 10.0 mi NNE 23.0 mph 29.9 mph N/A   Mostly Cloudy
4:35 PM 51.8 °F - 21.2 °F 30% 30.52 in 10.0 mi NNE 20.7 mph 31.1 mph N/A   Mostly Cloudy
4:55 PM 51.8 °F - 23.0 °F 33% 30.52 in 10.0 mi North 21.9 mph 31.1 mph N/A   Partly Cloudy
5:15 PM 51.8 °F - 21.2 °F 30% 30.51 in 10.0 mi North 23.0 mph 28.8 mph N/A   Partly Cloudy
5:35 PM 51.8 °F - 21.2 °F 30% 30.51 in 10.0 mi North 21.9 mph 28.8 mph N/A   Scattered Clouds
5:55 PM 51.8 °F - 21.2 °F 30% 30.50 in 10.0 mi NNE 20.7 mph 26.5 mph N/A   Scattered Clouds
6:15 PM 50.0 °F - 21.2 °F 32% 30.50 in 10.0 mi NNE 13.8 mph - N/A   Scattered Clouds
6:35 PM 51.8 °F - 21.2 °F 30% 30.49 in 10.0 mi North 17.3 mph 24.2 mph N/A   Partly Cloudy
6:55 PM 51.8 °F - 21.2 °F 30% 30.49 in 10.0 mi NNE 19.6 mph - N/A   Partly Cloudy
7:15 PM 50.0 °F - 21.2 °F 32% 30.48 in 10.0 mi North 16.1 mph 20.7 mph N/A   Clear
7:35 PM 50.0 °F - 21.2 °F 32% 30.48 in 10.0 mi NNE 13.8 mph - N/A   Clear
7:55 PM 48.2 °F - 23.0 °F 37% 30.48 in 10.0 mi NNE 11.5 mph - N/A   Clear
8:15 PM 46.4 °F 41.9 °F 24.8 °F 43% 30.47 in 10.0 mi NNE 9.2 mph - N/A   Clear
8:35 PM 44.6 °F 40.2 °F 24.8 °F 46% 30.47 in 10.0 mi NNE 8.1 mph - N/A   Clear
8:55 PM 42.8 °F 38.6 °F 24.8 °F 49% 30.47 in 10.0 mi NNE 6.9 mph - N/A   Clear
9:15 PM 39.2 °F 34.2 °F 24.8 °F 56% 30.47 in 10.0 mi North 6.9 mph - N/A   Clear
9:35 PM 37.4 °F 32.8 °F 24.8 °F 60% 30.47 in 10.0 mi North 5.8 mph - N/A   Clear
9:55 PM 37.4 °F 33.8 °F 24.8 °F 60% 30.47 in 10.0 mi North 4.6 mph - N/A   Clear
10:15 PM 35.6 °F 30.7 °F 23.0 °F 60% 30.47 in 10.0 mi NNW 5.8 mph - N/A   Clear
10:35 PM 37.4 °F 33.8 °F 24.8 °F 60% 30.46 in 10.0 mi NW 4.6 mph - N/A   Clear
10:55 PM 35.6 °F 30.7 °F 24.8 °F 65% 30.46 in 10.0 mi NW 5.8 mph - N/A   Clear
11:15 PM 33.8 °F 28.6 °F 24.8 °F 70% 30.46 in 10.0 mi WNW 5.8 mph - N/A   Clear
11:35 PM 33.8 °F 27.7 °F 24.8 °F 70% 30.45 in 10.0 mi NW 6.9 mph - N/A   Clear
11:55 PM 33.8 °F 26.4 °F 24.8 °F 70% 30.45 in 10.0 mi NW 9.2 mph - N/A   Clear